Terminal Aerodrome Forecast
Issued by NWS Atlanta, GA

Home | Current Version | Previous Version | Text Only | Print | Product List | Glossary On
Versions: 1 2 3 4 5 6 7 8 9 10 11 12 13 14 15 16 17 18 19 20 21 22 23 24 25 26 27 28 29 30 31 32 33 34 35 36 37 38 39
710
FTUS42 KFFC 280541
TAFATL
TAF
KATL 280541Z 2806/2912 24004KT P6SM BKN120
     FM281300 28006KT P6SM SCT050
     FM281800 27010KT P6SM FEW060
     FM290300 28004KT P6SM SKC=

USA.gov is the U.S. government's official web portal to all federal, state and local government web resources and services.